Wetterdaten: Samstag, 12.09.2015
Datum Zeit Temp. A. Feuchte A. Luftdruck Regen Wind Richtung Richtung Sonnenschein ET UV Solar Taupunkt Windchill Windben Empfang
12.09.2015 00:02 11,7 C 91 % 1019,0 hPa 0,0 l/m 0,0 km/h (0 Bft) NO 37 0 min 0,000 mm 0,0 UV-I 0 W/m 10,3 C 11,7 C 0,0 km/h (0 Bft) 0,00 %
12.09.2015 00:07 11,5 C 91 % 1018,9 hPa 0,0 l/m 0,0 km/h (0 Bft) O 93 0 min 0,000 mm 0,0 UV-I 0 W/m 10,1 C 11,5 C 0,0 km/h (0 Bft) 0,00 %
12.09.2015 00:12 11,2 C 92 % 1018,9 hPa 0,0 l/m 0,0 km/h (0 Bft) O-NO 73 0 min 0,000 mm 0,0 UV-I 0 W/m 9,9 C 11,2 C 0,0 km/h (0 Bft) 0,00 %
12.09.2015 00:17 11,1 C 92 % 1019,0 hPa 0,0 l/m 0,0 km/h (0 Bft) NO 49 0 min 0,000 mm 0,0 UV-I 0 W/m 9,8 C 11,1 C 0,0 km/h (0 Bft) 0,00 %
12.09.2015 00:22 11,0 C 93 % 1019,1 hPa 0,0 l/m 0,0 km/h (0 Bft) O-NO 59 0 min 0,000 mm 0,0 UV-I 0 W/m 9,9 C 11,0 C 0,0 km/h (0 Bft) 0,00 %
12.09.2015 00:27 10,9 C 94 % 1019,1 hPa 0,0 l/m 0,0 km/h (0 Bft) O-NO 61 0 min 0,000 mm 0,0 UV-I 0 W/m 10,0 C 10,9 C 0,0 km/h (0 Bft) 0,00 %
12.09.2015 00:32 10,9 C 94 % 1019,1 hPa 0,0 l/m 0,0 km/h (0 Bft) O-NO 61 0 min 0,000 mm 0,0 UV-I 0 W/m 10,0 C 10,9 C 0,0 km/h (0 Bft) 0,00 %
12.09.2015 00:37 10,8 C 94 % 1019,1 hPa 0,0 l/m 0,0 km/h (0 Bft) O-NO 61 0 min 0,000 mm 0,0 UV-I 0 W/m 9,9 C 10,8 C 0,0 km/h (0 Bft) 0,00 %
12.09.2015 00:42 10,8 C 95 % 1019,0 hPa 0,0 l/m 0,0 km/h (0 Bft) O-NO 61 0 min 0,000 mm 0,0 UV-I 0 W/m 10,0 C 10,8 C 0,0 km/h (0 Bft) 0,00 %
12.09.2015 00:47 10,7 C 95 % 1019,1 hPa 0,0 l/m 0,0 km/h (0 Bft) O-NO 67 0 min 0,000 mm 0,0 UV-I 0 W/m 9,9 C 10,7 C 0,0 km/h (0 Bft) 0,00 %
12.09.2015 00:52 10,5 C 95 % 1019,0 hPa 0,0 l/m 0,0 km/h (0 Bft) O-NO 67 0 min 0,000 mm 0,0 UV-I 0 W/m 9,7 C 10,5 C 0,0 km/h (0 Bft) 0,00 %
12.09.2015 00:57 10,5 C 95 % 1019,0 hPa 0,0 l/m 0,0 km/h (0 Bft) N-NO 32 0 min 0,000 mm 0,0 UV-I 0 W/m 9,7 C 10,5 C 0,0 km/h (0 Bft) 0,00 %
12.09.2015 01:02 10,3 C 95 % 1019,2 hPa 0,0 l/m 0,0 km/h (0 Bft) NO 45 0 min 0,000 mm 0,0 UV-I 0 W/m 9,5 C 10,3 C 0,0 km/h (0 Bft) 0,00 %
12.09.2015 01:07 10,2 C 96 % 1019,0 hPa 0,0 l/m 0,0 km/h (0 Bft) NO 45 0 min 0,000 mm 0,0 UV-I 0 W/m 9,6 C 10,2 C 0,0 km/h (0 Bft) 0,00 %
12.09.2015 01:12 10,1 C 97 % 1019,2 hPa 0,0 l/m 0,0 km/h (0 Bft) O-NO 62 0 min 0,000 mm 0,0 UV-I 0 W/m 9,6 C 10,1 C 0,0 km/h (0 Bft) 0,00 %
12.09.2015 01:17 9,9 C 97 % 1019,0 hPa 0,0 l/m 0,0 km/h (0 Bft) NO 55 0 min 0,000 mm 0,0 UV-I 0 W/m 9,4 C 9,9 C 0,0 km/h (0 Bft) 0,00 %
12.09.2015 01:22 9,8 C 97 % 1019,0 hPa 0,0 l/m 0,0 km/h (0 Bft) NO 46 0 min 0,000 mm 0,0 UV-I 0 W/m 9,3 C 9,8 C 0,0 km/h (0 Bft) 0,00 %
12.09.2015 01:27 9,7 C 97 % 1018,9 hPa 0,0 l/m 0,0 km/h (0 Bft) O-NO 59 0 min 0,000 mm 0,0 UV-I 0 W/m 9,2 C 9,7 C 0,0 km/h (0 Bft) 0,00 %
12.09.2015 01:32 9,6 C 97 % 1018,9 hPa 0,0 l/m 0,0 km/h (0 Bft) NO 43 0 min 0,000 mm 0,0 UV-I 0 W/m 9,1 C 9,6 C 0,0 km/h (0 Bft) 0,00 %
12.09.2015 01:37 9,6 C 97 % 1019,0 hPa 0,0 l/m 0,0 km/h (0 Bft) NO 54 0 min 0,000 mm 0,0 UV-I 0 W/m 9,1 C 9,6 C 0,0 km/h (0 Bft) 0,00 %
12.09.2015 01:42 9,6 C 98 % 1018,9 hPa 0,0 l/m 0,0 km/h (0 Bft) O 88 0 min 0,000 mm 0,0 UV-I 0 W/m 9,3 C 9,6 C 0,0 km/h (0 Bft) 0,00 %
12.09.2015 01:47 9,9 C 97 % 1018,7 hPa 0,0 l/m 0,7 km/h (0 Bft) SO 130 0 min 0,000 mm 0,0 UV-I 0 W/m 9,4 C 9,9 C 4,0 km/h (1 Bft) 0,00 %
12.09.2015 01:52 10,1 C 98 % 1019,0 hPa 0,0 l/m 0,0 km/h (0 Bft) O-NO 63 0 min 0,000 mm 0,0 UV-I 0 W/m 9,8 C 10,1 C 0,0 km/h (0 Bft) 0,00 %
12.09.2015 01:57 10,5 C 98 % 1018,7 hPa 0,0 l/m 0,0 km/h (0 Bft) O-NO 66 0 min 0,000 mm 0,0 UV-I 0 W/m 10,2 C 10,5 C 0,0 km/h (0 Bft) 0,00 %
12.09.2015 02:02 10,6 C 98 % 1018,9 hPa 0,0 l/m 0,0 km/h (0 Bft) NO 48 0 min 0,000 mm 0,0 UV-I 0 W/m 10,3 C 10,6 C 0,0 km/h (0 Bft) 0,00 %
12.09.2015 02:07 10,7 C 98 % 1018,8 hPa 0,0 l/m 0,0 km/h (0 Bft) NO 56 0 min 0,000 mm 0,0 UV-I 0 W/m 10,4 C 10,7 C 0,0 km/h (0 Bft) 0,00 %
12.09.2015 02:12 10,7 C 98 % 1018,7 hPa 0,0 l/m 0,0 km/h (0 Bft) O-NO 65 0 min 0,000 mm 0,0 UV-I 0 W/m 10,4 C 10,7 C 0,0 km/h (0 Bft) 0,00 %
12.09.2015 02:17 10,6 C 98 % 1018,8 hPa 0,0 l/m 0,0 km/h (0 Bft) NO 37 0 min 0,000 mm 0,0 UV-I 0 W/m 10,3 C 10,6 C 0,0 km/h (0 Bft) 0,00 %
12.09.2015 02:22 10,5 C 98 % 1018,6 hPa 0,0 l/m 0,0 km/h (0 Bft) NO 37 0 min 0,000 mm 0,0 UV-I 0 W/m 10,2 C 10,5 C 0,0 km/h (0 Bft) 0,00 %
12.09.2015 02:27 10,4 C 99 % 1018,7 hPa 0,0 l/m 0,0 km/h (0 Bft) NO 37 0 min 0,000 mm 0,0 UV-I 0 W/m 10,2 C 10,4 C 0,0 km/h (0 Bft) 0,00 %
12.09.2015 02:32 10,4 C 98 % 1018,9 hPa 0,0 l/m 0,0 km/h (0 Bft) NO 37 0 min 0,000 mm 0,0 UV-I 0 W/m 10,1 C 10,4 C 0,0 km/h (0 Bft) 0,00 %
12.09.2015 02:37 10,2 C 99 % 1018,8 hPa 0,0 l/m 0,0 km/h (0 Bft) NO 37 0 min 0,000 mm 0,0 UV-I 0 W/m 10,0 C 10,2 C 0,0 km/h (0 Bft) 0,00 %
12.09.2015 02:42 10,1 C 99 % 1018,7 hPa 0,0 l/m 0,0 km/h (0 Bft) NO 37 0 min 0,000 mm 0,0 UV-I 0 W/m 9,9 C 10,1 C 0,0 km/h (0 Bft) 0,00 %
12.09.2015 02:47 9,9 C 99 % 1018,8 hPa 0,0 l/m 0,0 km/h (0 Bft) NO 37 0 min 0,000 mm 0,0 UV-I 0 W/m 9,8 C 9,9 C 0,0 km/h (0 Bft) 0,00 %
12.09.2015 02:52 9,8 C 99 % 1018,8 hPa 0,0 l/m 0,0 km/h (0 Bft) NO 37 0 min 0,000 mm 0,0 UV-I 0 W/m 9,7 C 9,8 C 0,0 km/h (0 Bft) 0,00 %
12.09.2015 02:57 9,6 C 99 % 1018,6 hPa 0,0 l/m 0,0 km/h (0 Bft) NO 37 0 min 0,000 mm 0,0 UV-I 0 W/m 9,5 C 9,6 C 0,0 km/h (0 Bft) 0,00 %
12.09.2015 03:02 9,5 C 99 % 1018,8 hPa 0,0 l/m 0,0 km/h (0 Bft) NO 37 0 min 0,000 mm 0,0 UV-I 0 W/m 9,4 C 9,5 C 0,0 km/h (0 Bft) 0,00 %
12.09.2015 03:07 9,3 C 99 % 1018,9 hPa 0,0 l/m 0,0 km/h (0 Bft) NO 37 0 min 0,000 mm 0,0 UV-I 0 W/m 9,2 C 9,3 C 0,0 km/h (0 Bft) 0,00 %
12.09.2015 03:12 9,2 C 99 % 1018,8 hPa 0,0 l/m 0,0 km/h (0 Bft) NO 37 0 min 0,000 mm 0,0 UV-I 0 W/m 9,1 C 9,2 C 0,0 km/h (0 Bft) 0,00 %
12.09.2015 03:17 9,0 C 99 % 1018,6 hPa 0,0 l/m 0,0 km/h (0 Bft) NO 37 0 min 0,000 mm 0,0 UV-I 0 W/m 8,9 C 9,0 C 0,0 km/h (0 Bft) 0,00 %
12.09.2015 03:22 9,0 C 99 % 1018,7 hPa 0,0 l/m 0,0 km/h (0 Bft) O-NO 75 0 min 0,000 mm 0,0 UV-I 0 W/m 8,9 C 9,0 C 0,0 km/h (0 Bft) 0,00 %
12.09.2015 03:27 9,0 C 99 % 1018,5 hPa 0,0 l/m 0,0 km/h (0 Bft) O 83 0 min 0,000 mm 0,0 UV-I 0 W/m 8,9 C 9,0 C 0,0 km/h (0 Bft) 0,00 %
12.09.2015 03:32 9,2 C 99 % 1018,5 hPa 0,0 l/m 0,0 km/h (0 Bft) O-NO 68 0 min 0,000 mm 0,0 UV-I 0 W/m 9,1 C 9,2 C 0,0 km/h (0 Bft) 0,00 %
12.09.2015 03:37 9,3 C 99 % 1018,6 hPa 0,0 l/m 0,0 km/h (0 Bft) N-NO 14 0 min 0,000 mm 0,0 UV-I 0 W/m 9,2 C 9,3 C 0,0 km/h (0 Bft) 0,00 %
12.09.2015 03:42 9,3 C 99 % 1018,8 hPa 0,0 l/m 0,0 km/h (0 Bft) O-NO 73 0 min 0,000 mm 0,0 UV-I 0 W/m 9,2 C 9,3 C 0,0 km/h (0 Bft) 0,00 %
12.09.2015 03:47 9,3 C 99 % 1018,7 hPa 0,0 l/m 0,0 km/h (0 Bft) O 79 0 min 0,000 mm 0,0 UV-I 0 W/m 9,2 C 9,3 C 0,0 km/h (0 Bft) 0,00 %
12.09.2015 03:52 9,3 C 99 % 1018,7 hPa 0,0 l/m 0,0 km/h (0 Bft) O 80 0 min 0,000 mm 0,0 UV-I 0 W/m 9,2 C 9,3 C 0,0 km/h (0 Bft) 0,00 %
12.09.2015 03:57 9,2 C 99 % 1018,9 hPa 0,0 l/m 0,0 km/h (0 Bft) O-NO 74 0 min 0,000 mm 0,0 UV-I 0 W/m 9,1 C 9,2 C 0,0 km/h (0 Bft) 0,00 %
12.09.2015 04:02 9,2 C 99 % 1019,1 hPa 0,0 l/m 0,0 km/h (0 Bft) O-NO 74 0 min 0,000 mm 0,0 UV-I 0 W/m 9,1 C 9,2 C 0,0 km/h (0 Bft) 0,00 %
12.09.2015 04:07 9,2 C 99 % 1018,8 hPa 0,0 l/m 0,0 km/h (0 Bft) O-NO 72 0 min 0,000 mm 0,0 UV-I 0 W/m 9,1 C 9,2 C 0,0 km/h (0 Bft) 0,00 %
12.09.2015 04:12 9,1 C 99 % 1018,9 hPa 0,0 l/m 0,0 km/h (0 Bft) O-NO 72 0 min 0,000 mm 0,0 UV-I 0 W/m 9,0 C 9,1 C 0,0 km/h (0 Bft) 0,00 %
12.09.2015 04:17 9,0 C 99 % 1018,9 hPa 0,0 l/m 0,0 km/h (0 Bft) O-NO 72 0 min 0,000 mm 0,0 UV-I 0 W/m 8,9 C 9,0 C 0,0 km/h (0 Bft) 0,00 %
12.09.2015 04:22 8,8 C 99 % 1019,0 hPa 0,0 l/m 0,0 km/h (0 Bft) O-NO 72 0 min 0,000 mm 0,0 UV-I 0 W/m 8,7 C 8,8 C 0,0 km/h (0 Bft) 0,00 %
12.09.2015 04:27 8,7 C 99 % 1019,1 hPa 0,0 l/m 0,0 km/h (0 Bft) O-NO 72 0 min 0,000 mm 0,0 UV-I 0 W/m 8,6 C 8,7 C 0,0 km/h (0 Bft) 0,00 %
12.09.2015 04:32 8,5 C 99 % 1019,0 hPa 0,0 l/m 0,0 km/h (0 Bft) O-NO 72 0 min 0,000 mm 0,0 UV-I 0 W/m 8,4 C 8,5 C 0,0 km/h (0 Bft) 0,00 %
12.09.2015 04:37 8,4 C 99 % 1019,0 hPa 0,0 l/m 0,0 km/h (0 Bft) O-NO 72 0 min 0,000 mm 0,0 UV-I 0 W/m 8,3 C 8,4 C 0,0 km/h (0 Bft) 0,00 %
12.09.2015 04:42 8,1 C 99 % 1019,3 hPa 0,0 l/m 0,0 km/h (0 Bft) N 351 0 min 0,000 mm 0,0 UV-I 0 W/m 8,0 C 8,1 C 0,0 km/h (0 Bft) 0,00 %
12.09.2015 04:47 7,9 C 99 % 1019,1 hPa 0,0 l/m 0,0 km/h (0 Bft) O-NO 65 0 min 0,000 mm 0,0 UV-I 0 W/m 7,8 C 7,9 C 0,0 km/h (0 Bft) 0,00 %
12.09.2015 04:52 7,8 C 99 % 1019,0 hPa 0,0 l/m 0,0 km/h (0 Bft) O-NO 65 0 min 0,000 mm 0,0 UV-I 0 W/m 7,7 C 7,8 C 0,0 km/h (0 Bft) 0,00 %
12.09.2015 04:57 7,7 C 99 % 1019,1 hPa 0,0 l/m 0,0 km/h (0 Bft) O 80 0 min 0,000 mm 0,0 UV-I 0 W/m 7,6 C 7,7 C 0,0 km/h (0 Bft) 0,00 %
12.09.2015 05:02 7,7 C 99 % 1018,9 hPa 0,0 l/m 0,0 km/h (0 Bft) O-NO 76 0 min 0,000 mm 0,0 UV-I 0 W/m 7,6 C 7,7 C 0,0 km/h (0 Bft) 0,00 %
12.09.2015 05:07 7,7 C 99 % 1019,0 hPa 0,0 l/m 0,0 km/h (0 Bft) O-NO 78 0 min 0,000 mm 0,0 UV-I 0 W/m 7,6 C 7,7 C 0,0 km/h (0 Bft) 0,00 %
12.09.2015 05:12 7,8 C 99 % 1018,9 hPa 0,0 l/m 0,0 km/h (0 Bft) O-NO 78 0 min 0,000 mm 0,0 UV-I 0 W/m 7,7 C 7,8 C 0,0 km/h (0 Bft) 0,00 %
12.09.2015 05:17 7,8 C 99 % 1018,9 hPa 0,0 l/m 0,0 km/h (0 Bft) O-NO 78 0 min 0,000 mm 0,0 UV-I 0 W/m 7,7 C 7,8 C 0,0 km/h (0 Bft) 0,00 %
12.09.2015 05:22 7,9 C 99 % 1019,1 hPa 0,0 l/m 0,0 km/h (0 Bft) O-NO 78 0 min 0,000 mm 0,0 UV-I 0 W/m 7,8 C 7,9 C 0,0 km/h (0 Bft) 0,00 %
12.09.2015 05:27 7,9 C 99 % 1019,0 hPa 0,0 l/m 0,0 km/h (0 Bft) O-NO 77 0 min 0,000 mm 0,0 UV-I 0 W/m 7,8 C 7,9 C 0,0 km/h (0 Bft) 0,00 %
12.09.2015 05:32 7,8 C 99 % 1019,1 hPa 0,0 l/m 0,0 km/h (0 Bft) O-NO 70 0 min 0,000 mm 0,0 UV-I 0 W/m 7,7 C 7,8 C 0,0 km/h (0 Bft) 0,00 %
12.09.2015 05:37 7,7 C 99 % 1019,0 hPa 0,0 l/m 0,0 km/h (0 Bft) O-NO 70 0 min 0,000 mm 0,0 UV-I 0 W/m 7,6 C 7,7 C 0,0 km/h (0 Bft) 0,00 %
12.09.2015 05:42 7,5 C 99 % 1019,0 hPa 0,0 l/m 0,0 km/h (0 Bft) O-NO 70 0 min 0,000 mm 0,0 UV-I 0 W/m 7,4 C 7,5 C 0,0 km/h (0 Bft) 0,00 %
12.09.2015 05:47 7,4 C 99 % 1019,0 hPa 0,0 l/m 0,0 km/h (0 Bft) O-NO 78 0 min 0,000 mm 0,0 UV-I 0 W/m 7,3 C 7,4 C 0,0 km/h (0 Bft) 0,00 %
12.09.2015 05:52 7,4 C 99 % 1019,0 hPa 0,0 l/m 0,0 km/h (0 Bft) O-NO 68 0 min 0,000 mm 0,0 UV-I 0 W/m 7,3 C 7,4 C 0,0 km/h (0 Bft) 0,00 %
12.09.2015 05:57 7,5 C 99 % 1019,0 hPa 0,0 l/m 0,0 km/h (0 Bft) O-NO 68 0 min 0,000 mm 0,0 UV-I 0 W/m 7,4 C 7,5 C 0,0 km/h (0 Bft) 0,00 %
12.09.2015 06:02 7,5 C 99 % 1019,1 hPa 0,0 l/m 0,0 km/h (0 Bft) O-NO 68 0 min 0,000 mm 0,0 UV-I 0 W/m 7,4 C 7,5 C 0,0 km/h (0 Bft) 0,00 %
12.09.2015 06:07 7,6 C 99 % 1019,3 hPa 0,0 l/m 0,0 km/h (0 Bft) N-NO 29 0 min 0,000 mm 0,0 UV-I 0 W/m 7,5 C 7,6 C 0,0 km/h (0 Bft) 0,00 %
12.09.2015 06:12 7,7 C 99 % 1019,2 hPa 0,0 l/m 0,0 km/h (0 Bft) N 351 0 min 0,000 mm 0,0 UV-I 0 W/m 7,6 C 7,7 C 0,0 km/h (0 Bft) 0,00 %
12.09.2015 06:17 7,8 C 99 % 1019,3 hPa 0,0 l/m 0,0 km/h (0 Bft) O-NO 59 0 min 0,000 mm 0,0 UV-I 0 W/m 7,7 C 7,8 C 0,0 km/h (0 Bft) 0,00 %
12.09.2015 06:22 8,0 C 99 % 1019,2 hPa 0,0 l/m 0,0 km/h (0 Bft) O-SO 109 0 min 0,000 mm 0,0 UV-I 0 W/m 7,9 C 8,0 C 0,0 km/h (0 Bft) 0,00 %
12.09.2015 06:27 8,3 C 99 % 1019,5 hPa 0,0 l/m 0,0 km/h (0 Bft) NO 43 0 min 0,000 mm 0,0 UV-I 0 W/m 8,2 C 8,3 C 0,0 km/h (0 Bft) 0,00 %
12.09.2015 06:32 8,7 C 99 % 1019,5 hPa 0,0 l/m 0,0 km/h (0 Bft) O 80 0 min 0,000 mm 0,0 UV-I 0 W/m 8,6 C 8,7 C 0,0 km/h (0 Bft) 0,00 %
12.09.2015 06:37 9,0 C 99 % 1019,5 hPa 0,0 l/m 0,4 km/h (0 Bft) O-SO 118 0 min 0,000 mm 0,0 UV-I 0 W/m 8,9 C 9,0 C 4,0 km/h (1 Bft) 0,00 %
12.09.2015 06:42 9,3 C 99 % 1019,6 hPa 0,0 l/m 0,0 km/h (0 Bft) O-NO 76 0 min 0,000 mm 0,0 UV-I 0 W/m 9,2 C 9,3 C 0,0 km/h (0 Bft) 0,00 %
12.09.2015 06:47 9,4 C 99 % 1019,7 hPa 0,0 l/m 0,0 km/h (0 Bft) O-NO 66 0 min 0,000 mm 0,0 UV-I 0 W/m 9,3 C 9,4 C 0,0 km/h (0 Bft) 0,00 %
12.09.2015 06:52 9,5 C 99 % 1019,8 hPa 0,0 l/m 0,0 km/h (0 Bft) NO 53 0 min 0,000 mm 0,0 UV-I 0 W/m 9,4 C 9,5 C 0,0 km/h (0 Bft) 0,00 %
12.09.2015 06:57 9,6 C 99 % 1019,7 hPa 0,0 l/m 0,0 km/h (0 Bft) NO 55 0 min 0,000 mm 0,0 UV-I 5 W/m 9,5 C 9,6 C 0,0 km/h (0 Bft) 0,00 %
12.09.2015 07:02 9,6 C 99 % 1019,8 hPa 0,0 l/m 0,4 km/h (0 Bft) NO 34 0 min 0,000 mm 0,0 UV-I 8 W/m 9,5 C 9,6 C 4,0 km/h (1 Bft) 0,00 %
12.09.2015 07:07 9,6 C 99 % 1019,8 hPa 0,0 l/m 0,4 km/h (0 Bft) O 87 0 min 0,000 mm 0,0 UV-I 10 W/m 9,5 C 9,6 C 4,0 km/h (1 Bft) 0,00 %
12.09.2015 07:12 9,7 C 99 % 1019,7 hPa 0,0 l/m 0,0 km/h (0 Bft) NO 48 0 min 0,000 mm 0,0 UV-I 12 W/m 9,6 C 9,7 C 0,0 km/h (0 Bft) 0,00 %
12.09.2015 07:17 9,7 C 99 % 1020,0 hPa 0,0 l/m 0,0 km/h (0 Bft) O-NO 70 0 min 0,000 mm 0,0 UV-I 22 W/m 9,6 C 9,7 C 0,0 km/h (0 Bft) 0,00 %
12.09.2015 07:22 9,8 C 99 % 1020,0 hPa 0,0 l/m 4,3 km/h (1 Bft) O 82 0 min 0,000 mm 0,0 UV-I 25 W/m 9,7 C 9,8 C 7,9 km/h (2 Bft) 0,00 %
12.09.2015 07:27 9,8 C 99 % 1020,0 hPa 0,0 l/m 0,4 km/h (0 Bft) O-NO 70 0 min 0,000 mm 0,0 UV-I 27 W/m 9,7 C 9,8 C 4,0 km/h (1 Bft) 0,00 %
12.09.2015 07:32 9,8 C 99 % 1020,0 hPa 0,0 l/m 0,0 km/h (0 Bft) O 96 0 min 0,000 mm 0,0 UV-I 30 W/m 9,7 C 9,8 C 0,0 km/h (0 Bft) 0,00 %
12.09.2015 07:37 9,9 C 99 % 1020,0 hPa 0,0 l/m 1,4 km/h (1 Bft) O 101 0 min 0,000 mm 0,0 UV-I 36 W/m 9,8 C 9,9 C 4,0 km/h (1 Bft) 0,00 %
12.09.2015 07:42 9,9 C 98 % 1020,2 hPa 0,0 l/m 0,0 km/h (0 Bft) O-NO 69 0 min 0,000 mm 0,0 UV-I 42 W/m 9,6 C 9,9 C 0,0 km/h (0 Bft) 0,00 %
12.09.2015 07:47 9,9 C 98 % 1020,2 hPa 0,0 l/m 0,0 km/h (0 Bft) O-NO 74 0 min 0,000 mm 0,0 UV-I 44 W/m 9,6 C 9,9 C 0,0 km/h (0 Bft) 0,00 %
12.09.2015 07:52 10,0 C 98 % 1020,1 hPa 0,0 l/m 1,8 km/h (1 Bft) SO 130 0 min 0,000 mm 0,0 UV-I 46 W/m 9,7 C 10,0 C 4,0 km/h (1 Bft) 0,00 %
12.09.2015 07:57 10,1 C 98 % 1020,2 hPa 0,0 l/m 0,0 km/h (0 Bft) NO 47 0 min 0,000 mm 0,0 UV-I 51 W/m 9,8 C 10,1 C 0,0 km/h (0 Bft) 0,00 %
12.09.2015 08:02 10,1 C 98 % 1020,2 hPa 0,0 l/m 0,0 km/h (0 Bft) NO 56 0 min 0,000 mm 0,0 UV-I 64 W/m 9,8 C 10,1 C 0,0 km/h (0 Bft) 0,00 %
12.09.2015 08:07 10,0 C 98 % 1020,2 hPa 0,0 l/m 0,0 km/h (0 Bft) N 5 0 min 0,000 mm 0,0 UV-I 67 W/m 9,7 C 10,0 C 0,0 km/h (0 Bft) 0,00 %
12.09.2015 08:12 10,0 C 98 % 1020,3 hPa 0,0 l/m 5,8 km/h (2 Bft) SO 143 0 min 0,000 mm 0,0 UV-I 86 W/m 9,7 C 10,0 C 7,9 km/h (2 Bft) 0,00 %
12.09.2015 08:17 10,1 C 98 % 1020,3 hPa 0,0 l/m 0,0 km/h (0 Bft) O 94 0 min 0,000 mm 0,0 UV-I 80 W/m 9,8 C 10,1 C 0,0 km/h (0 Bft) 0,00 %
12.09.2015 08:22 10,1 C 98 % 1020,2 hPa 0,0 l/m 0,0 km/h (0 Bft) O 81 0 min 0,000 mm 0,0 UV-I 80 W/m 9,8 C 10,1 C 0,0 km/h (0 Bft) 0,00 %
12.09.2015 08:27 10,2 C 98 % 1020,2 hPa 0,0 l/m 0,0 km/h (0 Bft) O-NO 69 0 min 0,000 mm 0,0 UV-I 91 W/m 9,9 C 10,2 C 0,0 km/h (0 Bft) 0,00 %
12.09.2015 08:32 10,2 C 98 % 1020,4 hPa 0,0 l/m 0,0 km/h (0 Bft) NO 41 0 min 0,000 mm 0,0 UV-I 83 W/m 9,9 C 10,2 C 0,0 km/h (0 Bft) 0,00 %
12.09.2015 08:37 10,3 C 98 % 1020,6 hPa 0,0 l/m 0,0 km/h (0 Bft) O-NO 59 0 min 0,000 mm 0,0 UV-I 86 W/m 10,0 C 10,3 C 0,0 km/h (0 Bft) 0,00 %
12.09.2015 08:42 10,3 C 98 % 1020,4 hPa 0,0 l/m 0,4 km/h (0 Bft) O 95 0 min 0,000 mm 1,0 UV-I 97 W/m 10,0 C 10,3 C 4,0 km/h (1 Bft) 0,00 %
12.09.2015 08:47 10,4 C 98 % 1020,4 hPa 0,0 l/m 0,0 km/h (0 Bft) O 85 0 min 0,000 mm 1,0 UV-I 105 W/m 10,1 C 10,4 C 0,0 km/h (0 Bft) 0,00 %
12.09.2015 08:52 10,5 C 98 % 1020,8 hPa 0,0 l/m 0,4 km/h (0 Bft) O 92 0 min 0,000 mm 1,0 UV-I 116 W/m 10,2 C 10,5 C 4,0 km/h (1 Bft) 0,00 %
12.09.2015 08:57 10,6 C 98 % 1020,7 hPa 0,0 l/m 0,0 km/h (0 Bft) O-NO 60 0 min 0,000 mm 1,0 UV-I 95 W/m 10,3 C 10,6 C 0,0 km/h (0 Bft) 0,00 %
12.09.2015 09:02 10,7 C 98 % 1020,7 hPa 0,0 l/m 0,0 km/h (0 Bft) O-NO 58 0 min 0,000 mm 1,0 UV-I 119 W/m 10,4 C 10,7 C 0,0 km/h (0 Bft) 0,00 %
12.09.2015 09:07 10,7 C 98 % 1020,6 hPa 0,0 l/m 0,7 km/h (0 Bft) O-NO 69 0 min 0,000 mm 1,0 UV-I 127 W/m 10,4 C 10,7 C 4,0 km/h (1 Bft) 0,00 %
12.09.2015 09:12 10,8 C 98 % 1020,8 hPa 0,0 l/m 0,0 km/h (0 Bft) S-SO 165 0 min 0,000 mm 1,0 UV-I 137 W/m 10,5 C 10,8 C 0,0 km/h (0 Bft) 0,00 %
12.09.2015 09:17 10,8 C 97 % 1020,5 hPa 0,0 l/m 0,0 km/h (0 Bft) O-NO 72 0 min 0,000 mm 1,0 UV-I 155 W/m 10,3 C 10,8 C 0,0 km/h (0 Bft) 0,00 %
12.09.2015 09:22 11,0 C 97 % 1020,5 hPa 0,0 l/m 0,0 km/h (0 Bft) NO 44 0 min 0,000 mm 1,0 UV-I 154 W/m 10,5 C 11,0 C 0,0 km/h (0 Bft) 0,00 %
12.09.2015 09:27 11,1 C 97 % 1020,7 hPa 0,0 l/m 4,0 km/h (1 Bft) SO 124 0 min 0,000 mm 1,0 UV-I 136 W/m 10,6 C 11,1 C 7,9 km/h (2 Bft) 0,00 %
12.09.2015 09:32 11,1 C 97 % 1020,5 hPa 0,0 l/m 0,7 km/h (0 Bft) O 101 0 min 0,000 mm 1,0 UV-I 147 W/m 10,6 C 11,1 C 4,0 km/h (1 Bft) 0,00 %
12.09.2015 09:37 11,1 C 97 % 1020,6 hPa 0,0 l/m 0,0 km/h (0 Bft) NO 47 0 min 0,000 mm 1,0 UV-I 156 W/m 10,6 C 11,1 C 0,0 km/h (0 Bft) 0,00 %
12.09.2015 09:42 11,2 C 97 % 1020,7 hPa 0,0 l/m 0,0 km/h (0 Bft) O-NO 61 0 min 0,000 mm 1,0 UV-I 173 W/m 10,7 C 11,2 C 0,0 km/h (0 Bft) 0,00 %
12.09.2015 09:47 11,4 C 97 % 1020,7 hPa 0,0 l/m 0,0 km/h (0 Bft) NO 54 0 min 0,000 mm 1,0 UV-I 173 W/m 10,9 C 11,4 C 0,0 km/h (0 Bft) 0,00 %
12.09.2015 09:52 11,5 C 97 % 1020,6 hPa 0,0 l/m 2,9 km/h (1 Bft) O 94 0 min 0,000 mm 1,0 UV-I 180 W/m 11,0 C 11,5 C 7,9 km/h (2 Bft) 0,00 %
12.09.2015 09:57 11,6 C 97 % 1020,7 hPa 0,0 l/m 2,9 km/h (1 Bft) O 96 0 min 0,000 mm 1,0 UV-I 163 W/m 11,1 C 11,6 C 4,0 km/h (1 Bft) 0,00 %
12.09.2015 10:02 11,7 C 97 % 1020,7 hPa 0,0 l/m 0,7 km/h (0 Bft) NO 44 0 min 0,000 mm 1,0 UV-I 148 W/m 11,2 C 11,7 C 4,0 km/h (1 Bft) 0,00 %
12.09.2015 10:07 11,7 C 96 % 1020,7 hPa 0,0 l/m 0,7 km/h (0 Bft) O-NO 59 0 min 0,000 mm 1,0 UV-I 158 W/m 11,1 C 11,7 C 4,0 km/h (1 Bft) 0,00 %
12.09.2015 10:12 11,8 C 95 % 1020,8 hPa 0,0 l/m 0,0 km/h (0 Bft) NO 48 0 min 0,000 mm 1,0 UV-I 176 W/m 11,0 C 11,8 C 0,0 km/h (0 Bft) 0,00 %
12.09.2015 10:17 11,9 C 94 % 1020,8 hPa 0,0 l/m 0,0 km/h (0 Bft) O-NO 63 0 min 0,000 mm 1,0 UV-I 196 W/m 11,0 C 11,9 C 0,0 km/h (0 Bft) 0,00 %
12.09.2015 10:22 12,0 C 93 % 1020,7 hPa 0,0 l/m 2,9 km/h (1 Bft) O 91 0 min 0,000 mm 1,0 UV-I 204 W/m 10,9 C 12,0 C 4,0 km/h (1 Bft) 0,00 %
12.09.2015 10:27 12,2 C 92 % 1020,7 hPa 0,0 l/m 0,4 km/h (0 Bft) O-NO 68 0 min 0,000 mm 1,0 UV-I 212 W/m 10,9 C 12,2 C 4,0 km/h (1 Bft) 0,00 %
12.09.2015 10:32 12,3 C 90 % 1020,9 hPa 0,0 l/m 0,0 km/h (0 Bft) O-SO 112 0 min 0,000 mm 1,0 UV-I 236 W/m 10,7 C 12,3 C 0,0 km/h (0 Bft) 0,00 %
12.09.2015 10:37 12,4 C 89 % 1020,6 hPa 0,0 l/m 0,0 km/h (0 Bft) S 185 0 min 0,000 mm 1,0 UV-I 232 W/m 10,6 C 12,4 C 0,0 km/h (0 Bft) 0,00 %
12.09.2015 10:42 12,7 C 86 % 1020,7 hPa 0,0 l/m 0,0 km/h (0 Bft) NO 41 0 min 0,000 mm 1,0 UV-I 260 W/m 10,4 C 12,7 C 0,0 km/h (0 Bft) 0,00 %
12.09.2015 10:47 13,0 C 84 % 1020,7 hPa 0,0 l/m 0,0 km/h (0 Bft) N 354 0 min 0,000 mm 1,0 UV-I 277 W/m 10,4 C 13,0 C 0,0 km/h (0 Bft) 0,00 %
12.09.2015 10:52 13,2 C 82 % 1020,7 hPa 0,0 l/m 0,0 km/h (0 Bft) O 85 0 min 0,000 mm 1,0 UV-I 258 W/m 10,2 C 13,2 C 0,0 km/h (0 Bft) 0,00 %
12.09.2015 10:57 13,4 C 82 % 1020,7 hPa 0,0 l/m 1,8 km/h (1 Bft) O-NO 61 0 min 0,000 mm 1,0 UV-I 274 W/m 10,4 C 13,4 C 4,0 km/h (1 Bft) 0,00 %
12.09.2015 11:02 13,4 C 82 % 1020,4 hPa 0,0 l/m 2,9 km/h (1 Bft) O-SO 106 5 min 0,000 mm 2,0 UV-I 366 W/m 10,4 C 13,4 C 4,0 km/h (1 Bft) 0,00 %
12.09.2015 11:07 13,5 C 81 % 1020,4 hPa 0,0 l/m 0,4 km/h (0 Bft) O-SO 119 0 min 0,000 mm 2,0 UV-I 342 W/m 10,3 C 13,5 C 4,0 km/h (1 Bft) 0,00 %
12.09.2015 11:12 13,9 C 79 % 1020,4 hPa 0,0 l/m 0,4 km/h (0 Bft) N 355 0 min 0,000 mm 2,0 UV-I 339 W/m 10,3 C 13,9 C 4,0 km/h (1 Bft) 0,00 %
12.09.2015 11:17 14,5 C 76 % 1020,6 hPa 0,0 l/m 0,0 km/h (0 Bft) NW 314 0 min 0,000 mm 2,0 UV-I 282 W/m 10,3 C 14,5 C 0,0 km/h (0 Bft) 0,00 %
12.09.2015 11:22 15,1 C 74 % 1020,7 hPa 0,0 l/m 0,0 km/h (0 Bft) O 85 5 min 0,000 mm 2,0 UV-I 464 W/m 10,5 C 15,1 C 0,0 km/h (0 Bft) 0,00 %
12.09.2015 11:27 15,7 C 70 % 1020,5 hPa 0,0 l/m 1,8 km/h (1 Bft) NW 313 5 min 0,000 mm 2,0 UV-I 462 W/m 10,2 C 15,7 C 7,9 km/h (2 Bft) 0,00 %
12.09.2015 11:32 16,4 C 68 % 1020,5 hPa 0,0 l/m 0,7 km/h (0 Bft) N-NO 33 5 min 0,000 mm 2,0 UV-I 489 W/m 10,5 C 16,4 C 4,0 km/h (1 Bft) 0,00 %
12.09.2015 11:37 16,7 C 69 % 1020,3 hPa 0,0 l/m 0,0 km/h (0 Bft) O 85 5 min 0,000 mm 2,0 UV-I 510 W/m 11,0 C 16,7 C 0,0 km/h (0 Bft) 0,00 %
12.09.2015 11:42 16,9 C 65 % 1020,5 hPa 0,0 l/m 0,0 km/h (0 Bft) O 84 5 min 0,000 mm 2,0 UV-I 524 W/m 10,3 C 16,9 C 0,0 km/h (0 Bft) 0,00 %
12.09.2015 11:47 17,4 C 64 % 1020,1 hPa 0,0 l/m 1,8 km/h (1 Bft) N 352 5 min 0,000 mm 2,0 UV-I 536 W/m 10,5 C 17,4 C 4,0 km/h (1 Bft) 0,00 %
12.09.2015 11:52 17,8 C 63 % 1020,6 hPa 0,0 l/m 0,7 km/h (0 Bft) N 5 5 min 0,000 mm 2,0 UV-I 552 W/m 10,7 C 17,8 C 4,0 km/h (1 Bft) 0,00 %
12.09.2015 11:57 18,0 C 64 % 1020,4 hPa 0,0 l/m 0,0 km/h (0 Bft) O-NO 62 5 min 0,000 mm 2,0 UV-I 560 W/m 11,1 C 18,0 C 0,0 km/h (0 Bft) 0,00 %
12.09.2015 12:02 18,0 C 64 % 1020,4 hPa 0,0 l/m 0,4 km/h (0 Bft) W 280 5 min 0,000 mm 2,0 UV-I 575 W/m 11,1 C 18,0 C 4,0 km/h (1 Bft) 0,00 %
12.09.2015 12:07 17,9 C 64 % 1020,4 hPa 0,0 l/m 0,0 km/h (0 Bft) O-NO 77 5 min 0,000 mm 2,0 UV-I 589 W/m 11,0 C 17,9 C 0,0 km/h (0 Bft) 0,00 %
12.09.2015 12:12 17,8 C 64 % 1020,1 hPa 0,0 l/m 0,4 km/h (0 Bft) NO 44 5 min 0,000 mm 3,0 UV-I 611 W/m 10,9 C 17,8 C 4,0 km/h (1 Bft) 0,00 %
12.09.2015 12:17 18,0 C 62 % 1020,1 hPa 0,0 l/m 0,0 km/h (0 Bft) O-NO 63 5 min 0,000 mm 3,0 UV-I 624 W/m 10,6 C 18,0 C 0,0 km/h (0 Bft) 0,00 %
12.09.2015 12:22 18,3 C 61 % 1020,2 hPa 0,0 l/m 0,0 km/h (0 Bft) S-SO 149 5 min 0,000 mm 3,0 UV-I 631 W/m 10,6 C 18,3 C 0,0 km/h (0 Bft) 0,00 %
12.09.2015 12:27 18,5 C 62 % 1020,1 hPa 0,0 l/m 1,4 km/h (1 Bft) SO 128 5 min 0,000 mm 3,0 UV-I 644 W/m 11,1 C 18,5 C 4,0 km/h (1 Bft) 0,00 %
12.09.2015 12:32 18,7 C 59 % 1020,2 hPa 0,0 l/m 0,0 km/h (0 Bft) O 85 5 min 0,000 mm 3,0 UV-I 654 W/m 10,5 C 18,7 C 0,0 km/h (0 Bft) 0,00 %
12.09.2015 12:37 18,9 C 58 % 1020,1 hPa 0,0 l/m 0,0 km/h (0 Bft) O-NO 58 5 min 0,000 mm 3,0 UV-I 668 W/m 10,5 C 18,9 C 0,0 km/h (0 Bft) 0,00 %
12.09.2015 12:43 19,1 C 56 % 1020,0 hPa 0,0 l/m 0,0 km/h (0 Bft) O-SO 105 6 min 0,000 mm 3,0 UV-I 672 W/m 10,1 C 19,1 C 0,0 km/h (0 Bft) 0,00 %
12.09.2015 12:48 19,3 C 56 % 1019,9 hPa 0,0 l/m 0,0 km/h (0 Bft) N-NO 21 5 min 0,000 mm 3,0 UV-I 680 W/m 10,3 C 19,3 C 0,0 km/h (0 Bft) 0,00 %
12.09.2015 12:53 19,5 C 56 % 1019,9 hPa 0,0 l/m 0,0 km/h (0 Bft) N-NW 344 5 min 0,000 mm 3,0 UV-I 685 W/m 10,5 C 19,5 C 0,0 km/h (0 Bft) 0,00 %
12.09.2015 12:58 19,7 C 55 % 1019,9 hPa 0,0 l/m 0,0 km/h (0 Bft) O-NO 78 5 min 0,000 mm 3,0 UV-I 682 W/m 10,4 C 19,7 C 0,0 km/h (0 Bft) 0,00 %
12.09.2015 13:03 19,7 C 54 % 1020,1 hPa 0,0 l/m 0,0 km/h (0 Bft) NO 50 5 min 0,000 mm 3,0 UV-I 691 W/m 10,1 C 19,7 C 0,0 km/h (0 Bft) 0,00 %
12.09.2015 13:08 19,8 C 59 % 1020,0 hPa 0,0 l/m 0,0 km/h (0 Bft) NO 35 5 min 0,000 mm 3,0 UV-I 704 W/m 11,6 C 19,8 C 0,0 km/h (0 Bft) 0,00 %
12.09.2015 13:13 20,1 C 53 % 1020,0 hPa 0,0 l/m 0,0 km/h (0 Bft) N-NO 29 5 min 0,000 mm 3,0 UV-I 712 W/m 10,2 C 20,1 C 0,0 km/h (0 Bft) 0,00 %
12.09.2015 13:18 20,3 C 53 % 1020,0 hPa 0,0 l/m 0,0 km/h (0 Bft) O-NO 74 5 min 0,000 mm 3,0 UV-I 716 W/m 10,4 C 20,3 C 0,0 km/h (0 Bft) 0,00 %
12.09.2015 13:23 20,4 C 52 % 1019,7 hPa 0,0 l/m 2,9 km/h (1 Bft) NO 52 5 min 0,000 mm 3,0 UV-I 716 W/m 10,2 C 20,4 C 4,0 km/h (1 Bft) 0,00 %
12.09.2015 13:28 20,6 C 52 % 1019,8 hPa 0,0 l/m 1,8 km/h (1 Bft) O 91 5 min 0,000 mm 3,0 UV-I 720 W/m 10,4 C 20,6 C 4,0 km/h (1 Bft) 0,00 %
12.09.2015 13:33 20,7 C 53 % 1019,6 hPa 0,0 l/m 0,0 km/h (0 Bft) NO 50 5 min 0,000 mm 3,0 UV-I 726 W/m 10,8 C 20,7 C 0,0 km/h (0 Bft) 0,00 %
12.09.2015 13:38 20,9 C 50 % 1019,6 hPa 0,0 l/m 0,0 km/h (0 Bft) O-SO 115 5 min 0,000 mm 3,0 UV-I 733 W/m 10,1 C 20,9 C 0,0 km/h (0 Bft) 0,00 %
12.09.2015 13:43 21,0 C 49 % 1019,5 hPa 0,0 l/m 1,8 km/h (1 Bft) O-SO 111 5 min 0,000 mm 3,0 UV-I 732 W/m 9,9 C 21,0 C 4,0 km/h (1 Bft) 0,00 %
12.09.2015 13:48 21,1 C 49 % 1019,6 hPa 0,0 l/m 0,7 km/h (0 Bft) O 79 5 min 0,000 mm 3,0 UV-I 729 W/m 10,0 C 21,1 C 4,0 km/h (1 Bft) 0,00 %
12.09.2015 13:53 21,1 C 50 % 1019,4 hPa 0,0 l/m 0,0 km/h (0 Bft) N-NO 21 5 min 0,000 mm 2,0 UV-I 731 W/m 10,3 C 21,1 C 0,0 km/h (0 Bft) 0,00 %
12.09.2015 13:58 21,2 C 48 % 1019,4 hPa 0,0 l/m 0,0 km/h (0 Bft) O 80 5 min 0,000 mm 2,0 UV-I 739 W/m 9,7 C 21,2 C 0,0 km/h (0 Bft) 0,00 %
12.09.2015 14:03 21,3 C 49 % 1019,4 hPa 0,0 l/m 0,0 km/h (0 Bft) NO 51 5 min 0,000 mm 2,0 UV-I 725 W/m 10,1 C 21,3 C 0,0 km/h (0 Bft) 0,00 %
12.09.2015 14:08 21,4 C 46 % 1019,2 hPa 0,0 l/m 4,7 km/h (1 Bft) O-SO 106 5 min 0,000 mm 2,0 UV-I 732 W/m 9,3 C 21,4 C 7,9 km/h (2 Bft) 0,00 %
12.09.2015 14:13 21,4 C 49 % 1019,1 hPa 0,0 l/m 0,0 km/h (0 Bft) NO 54 5 min 0,000 mm 2,0 UV-I 713 W/m 10,2 C 21,4 C 0,0 km/h (0 Bft) 0,00 %
12.09.2015 14:18 21,4 C 48 % 1019,1 hPa 0,0 l/m 0,0 km/h (0 Bft) N-NO 31 5 min 0,000 mm 2,0 UV-I 748 W/m 9,9 C 21,4 C 0,0 km/h (0 Bft) 0,00 %
12.09.2015 14:23 21,5 C 47 % 1019,1 hPa 0,0 l/m 0,0 km/h (0 Bft) O-NO 66 5 min 0,000 mm 2,0 UV-I 748 W/m 9,7 C 21,5 C 0,0 km/h (0 Bft) 0,00 %
12.09.2015 14:28 21,6 C 48 % 1019,1 hPa 0,0 l/m 0,0 km/h (0 Bft) N 351 5 min 0,000 mm 2,0 UV-I 756 W/m 10,1 C 21,6 C 0,0 km/h (0 Bft) 0,00 %
12.09.2015 14:33 21,6 C 47 % 1019,0 hPa 0,0 l/m 0,0 km/h (0 Bft) O-NO 61 5 min 0,000 mm 1,0 UV-I 753 W/m 9,8 C 21,6 C 0,0 km/h (0 Bft) 0,00 %
12.09.2015 14:38 21,6 C 48 % 1018,6 hPa 0,0 l/m 0,7 km/h (0 Bft) O-NO 58 5 min 0,000 mm 1,0 UV-I 755 W/m 10,1 C 21,6 C 4,0 km/h (1 Bft) 0,00 %
12.09.2015 14:43 21,6 C 49 % 1018,8 hPa 0,0 l/m 4,3 km/h (1 Bft) O-NO 65 5 min 0,000 mm 1,0 UV-I 756 W/m 10,4 C 21,6 C 7,9 km/h (2 Bft) 0,00 %
12.09.2015 14:48 21,6 C 48 % 1018,7 hPa 0,0 l/m 2,2 km/h (1 Bft) O-SO 105 5 min 0,000 mm 1,0 UV-I 753 W/m 10,1 C 21,6 C 4,0 km/h (1 Bft) 0,00 %
12.09.2015 14:53 21,6 C 49 % 1018,6 hPa 0,0 l/m 0,7 km/h (0 Bft) O-NO 75 5 min 0,000 mm 1,0 UV-I 705 W/m 10,4 C 21,6 C 4,0 km/h (1 Bft) 0,00 %
12.09.2015 14:58 21,7 C 48 % 1018,5 hPa 0,0 l/m 0,0 km/h (0 Bft) N-NO 14 5 min 0,000 mm 1,0 UV-I 700 W/m 10,2 C 21,7 C 0,0 km/h (0 Bft) 0,00 %
12.09.2015 15:03 21,8 C 48 % 1018,4 hPa 0,0 l/m 1,4 km/h (1 Bft) O 84 5 min 0,000 mm 1,0 UV-I 710 W/m 10,3 C 21,8 C 4,0 km/h (1 Bft) 0,00 %
12.09.2015 15:08 21,8 C 48 % 1018,4 hPa 0,0 l/m 0,7 km/h (0 Bft) O-SO 112 5 min 0,000 mm 1,0 UV-I 710 W/m 10,3 C 21,8 C 4,0 km/h (1 Bft) 0,00 %
12.09.2015 15:13 21,8 C 48 % 1018,3 hPa 0,0 l/m 4,7 km/h (1 Bft) O-SO 105 5 min 0,000 mm 1,0 UV-I 723 W/m 10,3 C 21,8 C 7,9 km/h (2 Bft) 0,00 %
12.09.2015 15:18 21,8 C 46 % 1018,2 hPa 0,0 l/m 2,9 km/h (1 Bft) O-SO 119 5 min 0,000 mm 1,0 UV-I 712 W/m 9,7 C 21,8 C 4,0 km/h (1 Bft) 0,00 %
12.09.2015 15:23 21,8 C 46 % 1018,1 hPa 0,0 l/m 4,3 km/h (1 Bft) O 96 5 min 0,000 mm 1,0 UV-I 711 W/m 9,7 C 21,8 C 7,9 km/h (2 Bft) 0,00 %
12.09.2015 15:28 21,9 C 46 % 1018,2 hPa 0,0 l/m 2,9 km/h (1 Bft) N 6 5 min 0,000 mm 1,0 UV-I 689 W/m 9,7 C 21,9 C 4,0 km/h (1 Bft) 0,00 %
12.09.2015 15:33 21,9 C 44 % 1018,0 hPa 0,0 l/m 2,9 km/h (1 Bft) O 93 5 min 0,000 mm 1,0 UV-I 680 W/m 9,1 C 21,9 C 4,0 km/h (1 Bft) 0,00 %
12.09.2015 15:38 22,0 C 44 % 1018,1 hPa 0,0 l/m 0,0 km/h (0 Bft) NO 52 5 min 0,000 mm 1,0 UV-I 670 W/m 9,2 C 22,0 C 0,0 km/h (0 Bft) 0,00 %
12.09.2015 15:43 22,0 C 44 % 1018,0 hPa 0,0 l/m 0,0 km/h (0 Bft) N 355 5 min 0,000 mm 1,0 UV-I 660 W/m 9,2 C 22,0 C 0,0 km/h (0 Bft) 0,00 %
12.09.2015 15:48 22,2 C 44 % 1018,0 hPa 0,0 l/m 2,2 km/h (1 Bft) O 79 5 min 0,000 mm 1,0 UV-I 660 W/m 9,4 C 22,2 C 4,0 km/h (1 Bft) 0,00 %
12.09.2015 15:53 22,3 C 44 % 1018,0 hPa 0,0 l/m 6,8 km/h (2 Bft) O 79 5 min 0,000 mm 1,0 UV-I 650 W/m 9,5 C 22,2 C 11,9 km/h (2 Bft) 0,00 %
12.09.2015 15:58 22,3 C 44 % 1018,0 hPa 0,0 l/m 4,0 km/h (1 Bft) SO 130 5 min 0,000 mm 1,0 UV-I 660 W/m 9,5 C 22,3 C 7,9 km/h (2 Bft) 0,00 %
12.09.2015 16:03 22,2 C 45 % 1017,8 hPa 0,0 l/m 0,0 km/h (0 Bft) O-NO 65 5 min 0,000 mm 1,0 UV-I 650 W/m 9,7 C 22,2 C 0,0 km/h (0 Bft) 0,00 %
12.09.2015 16:08 22,2 C 45 % 1017,6 hPa 0,0 l/m 1,8 km/h (1 Bft) N-NO 24 5 min 0,000 mm 1,0 UV-I 650 W/m 9,7 C 22,2 C 4,0 km/h (1 Bft) 0,00 %
12.09.2015 16:13 22,3 C 45 % 1017,7 hPa 0,0 l/m 0,7 km/h (0 Bft) O 86 5 min 0,000 mm 1,0 UV-I 655 W/m 9,8 C 22,3 C 4,0 km/h (1 Bft) 0,00 %
12.09.2015 16:18 22,4 C 44 % 1017,8 hPa 0,0 l/m 7,2 km/h (2 Bft) O 85 5 min 0,000 mm 1,0 UV-I 655 W/m 9,5 C 22,1 C 7,9 km/h (2 Bft) 0,00 %
12.09.2015 16:23 22,5 C 43 % 1017,6 hPa 0,0 l/m 4,7 km/h (1 Bft) SO 134 5 min 0,000 mm 1,0 UV-I 650 W/m 9,3 C 22,5 C 7,9 km/h (2 Bft) 0,00 %
12.09.2015 16:28 22,5 C 44 % 1017,6 hPa 0,0 l/m 2,9 km/h (1 Bft) NO 48 5 min 0,000 mm 1,0 UV-I 650 W/m 9,6 C 22,5 C 4,0 km/h (1 Bft) 0,00 %
12.09.2015 16:33 22,5 C 43 % 1017,4 hPa 0,0 l/m 1,8 km/h (1 Bft) O-NO 67 5 min 0,000 mm 1,0 UV-I 645 W/m 9,3 C 22,5 C 4,0 km/h (1 Bft) 0,00 %
12.09.2015 16:38 22,5 C 43 % 1017,6 hPa 0,0 l/m 3,2 km/h (1 Bft) N 358 5 min 0,000 mm 1,0 UV-I 640 W/m 9,3 C 22,5 C 4,0 km/h (1 Bft) 0,00 %
12.09.2015 16:43 22,6 C 43 % 1017,4 hPa 0,0 l/m 6,8 km/h (2 Bft) O-NO 75 5 min 0,000 mm 1,0 UV-I 645 W/m 9,4 C 22,5 C 7,9 km/h (2 Bft) 0,00 %
12.09.2015 16:48 22,6 C 43 % 1017,4 hPa 0,0 l/m 0,0 km/h (0 Bft) O-SO 104 5 min 0,000 mm 1,0 UV-I 645 W/m 9,4 C 22,6 C 0,0 km/h (0 Bft) 0,00 %
12.09.2015 16:53 22,7 C 43 % 1017,3 hPa 0,0 l/m 0,4 km/h (0 Bft) NO 49 5 min 0,000 mm 1,0 UV-I 640 W/m 9,5 C 22,7 C 4,0 km/h (1 Bft) 0,00 %
12.09.2015 16:58 22,7 C 41 % 1017,3 hPa 0,0 l/m 1,8 km/h (1 Bft) O-NO 58 5 min 0,000 mm 1,0 UV-I 654 W/m 8,8 C 22,7 C 4,0 km/h (1 Bft) 0,00 %
12.09.2015 17:03 22,9 C 41 % 1017,3 hPa 0,0 l/m 1,4 km/h (1 Bft) O-SO 121 5 min 0,000 mm 1,0 UV-I 655 W/m 8,9 C 22,9 C 4,0 km/h (1 Bft) 0,00 %
12.09.2015 17:08 23,1 C 42 % 1017,2 hPa 0,0 l/m 8,3 km/h (2 Bft) O 97 5 min 0,000 mm 1,0 UV-I 639 W/m 9,5 C 22,5 C 11,9 km/h (2 Bft) 0,00 %
12.09.2015 17:13 23,2 C 42 % 1017,2 hPa 0,0 l/m 5,4 km/h (1 Bft) O 85 5 min 0,000 mm 1,0 UV-I 642 W/m 9,6 C 23,2 C 7,9 km/h (2 Bft) 0,00 %
12.09.2015 17:18 23,3 C 42 % 1017,2 hPa 0,0 l/m 1,8 km/h (1 Bft) S 184 5 min 0,000 mm 1,0 UV-I 609 W/m 9,7 C 23,3 C 4,0 km/h (1 Bft) 0,00 %
12.09.2015 17:23 23,3 C 42 % 1017,0 hPa 0,0 l/m 5,4 km/h (1 Bft) O-NO 59 5 min 0,000 mm 1,0 UV-I 583 W/m 9,7 C 23,3 C 7,9 km/h (2 Bft) 0,00 %
12.09.2015 17:28 23,4 C 41 % 1017,1 hPa 0,0 l/m 1,4 km/h (1 Bft) O-NO 61 5 min 0,000 mm 1,0 UV-I 575 W/m 9,4 C 23,4 C 4,0 km/h (1 Bft) 0,00 %
12.09.2015 17:33 23,3 C 43 % 1017,0 hPa 0,0 l/m 9,0 km/h (2 Bft) O-SO 114 5 min 0,000 mm 1,0 UV-I 528 W/m 10,0 C 22,5 C 11,9 km/h (2 Bft) 0,00 %
12.09.2015 17:38 23,1 C 43 % 1017,0 hPa 0,0 l/m 1,8 km/h (1 Bft) O 91 5 min 0,000 mm 1,0 UV-I 434 W/m 9,8 C 23,1 C 4,0 km/h (1 Bft) 0,00 %
12.09.2015 17:43 23,0 C 44 % 1017,0 hPa 0,0 l/m 1,4 km/h (1 Bft) O 79 5 min 0,000 mm 1,0 UV-I 520 W/m 10,1 C 23,0 C 4,0 km/h (1 Bft) 0,00 %
12.09.2015 17:48 22,9 C 44 % 1016,8 hPa 0,0 l/m 4,7 km/h (1 Bft) O-NO 69 5 min 0,000 mm 1,0 UV-I 427 W/m 10,0 C 22,9 C 7,9 km/h (2 Bft) 0,00 %
12.09.2015 17:53 22,7 C 45 % 1017,0 hPa 0,0 l/m 2,9 km/h (1 Bft) S 177 5 min 0,000 mm 1,0 UV-I 478 W/m 10,1 C 22,7 C 4,0 km/h (1 Bft) 0,00 %
12.09.2015 17:58 22,5 C 45 % 1017,0 hPa 0,0 l/m 2,2 km/h (1 Bft) S 176 5 min 0,000 mm 1,0 UV-I 358 W/m 10,0 C 22,5 C 4,0 km/h (1 Bft) 0,00 %
12.09.2015 18:03 22,3 C 45 % 1016,9 hPa 0,0 l/m 12,2 km/h (2 Bft) O-SO 110 5 min 0,000 mm 1,0 UV-I 323 W/m 9,8 C 20,6 C 15,8 km/h (3 Bft) 0,00 %
12.09.2015 18:08 22,1 C 47 % 1016,9 hPa 0,0 l/m 6,5 km/h (2 Bft) O 85 5 min 0,000 mm 0,0 UV-I 391 W/m 10,3 C 22,1 C 7,9 km/h (2 Bft) 0,00 %
12.09.2015 18:13 21,9 C 48 % 1016,7 hPa 0,0 l/m 5,4 km/h (1 Bft) O-NO 72 5 min 0,000 mm 0,0 UV-I 359 W/m 10,4 C 21,9 C 7,9 km/h (2 Bft) 0,00 %
12.09.2015 18:18 21,7 C 48 % 1016,8 hPa 0,0 l/m 4,0 km/h (1 Bft) O 97 5 min 0,000 mm 0,0 UV-I 388 W/m 10,2 C 21,7 C 4,0 km/h (1 Bft) 0,00 %
12.09.2015 18:23 21,5 C 49 % 1016,7 hPa 0,0 l/m 1,4 km/h (1 Bft) O-NO 73 5 min 0,000 mm 0,0 UV-I 361 W/m 10,3 C 21,5 C 4,0 km/h (1 Bft) 0,00 %
12.09.2015 18:28 21,5 C 49 % 1016,9 hPa 0,0 l/m 4,3 km/h (1 Bft) SO 129 5 min 0,000 mm 0,0 UV-I 320 W/m 10,3 C 21,5 C 7,9 km/h (2 Bft) 0,00 %
12.09.2015 18:33 21,4 C 49 % 1016,9 hPa 0,0 l/m 1,4 km/h (1 Bft) N-NW 342 5 min 0,000 mm 0,0 UV-I 239 W/m 10,2 C 21,4 C 4,0 km/h (1 Bft) 0,00 %
12.09.2015 18:38 21,3 C 49 % 1016,9 hPa 0,0 l/m 0,4 km/h (0 Bft) O-NO 70 5 min 0,000 mm 0,0 UV-I 207 W/m 10,1 C 21,3 C 4,0 km/h (1 Bft) 0,00 %
12.09.2015 18:43 21,1 C 49 % 1016,8 hPa 0,0 l/m 7,2 km/h (2 Bft) O-SO 106 5 min 0,000 mm 0,0 UV-I 152 W/m 10,0 C 20,8 C 11,9 km/h (2 Bft) 0,00 %
12.09.2015 18:48 20,9 C 51 % 1016,7 hPa 0,0 l/m 1,4 km/h (1 Bft) O-SO 103 5 min 0,000 mm 0,0 UV-I 118 W/m 10,4 C 20,9 C 4,0 km/h (1 Bft) 0,00 %
12.09.2015 18:53 20,7 C 52 % 1016,7 hPa 0,0 l/m 0,0 km/h (0 Bft) O-SO 113 5 min 0,000 mm 0,0 UV-I 135 W/m 10,5 C 20,7 C 0,0 km/h (0 Bft) 0,00 %
12.09.2015 18:58 20,4 C 53 % 1016,8 hPa 0,0 l/m 0,0 km/h (0 Bft) NO 56 5 min 0,000 mm 0,0 UV-I 74 W/m 10,5 C 20,4 C 0,0 km/h (0 Bft) 0,00 %
12.09.2015 19:03 20,2 C 54 % 1016,5 hPa 0,0 l/m 11,9 km/h (2 Bft) S-SO 152 5 min 0,000 mm 0,0 UV-I 89 W/m 10,6 C 18,3 C 15,8 km/h (3 Bft) 0,00 %
12.09.2015 19:08 19,9 C 53 % 1016,6 hPa 0,0 l/m 6,5 km/h (2 Bft) O 99 5 min 0,000 mm 0,0 UV-I 28 W/m 10,0 C 19,9 C 7,9 km/h (2 Bft) 0,00 %
12.09.2015 19:13 19,7 C 55 % 1016,5 hPa 0,0 l/m 4,0 km/h (1 Bft) O-SO 103 5 min 0,000 mm 0,0 UV-I 19 W/m 10,4 C 19,7 C 7,9 km/h (2 Bft) 0,00 %
12.09.2015 19:18 19,6 C 56 % 1016,5 hPa 0,0 l/m 5,4 km/h (1 Bft) O 93 0 min 0,000 mm 0,0 UV-I 7 W/m 10,6 C 19,6 C 7,9 km/h (2 Bft) 0,00 %
12.09.2015 19:23 19,4 C 57 % 1016,5 hPa 0,0 l/m 0,7 km/h (0 Bft) S 172 0 min 0,000 mm 0,0 UV-I 0 W/m 10,7 C 19,4 C 4,0 km/h (1 Bft) 0,00 %
12.09.2015 19:28 19,2 C 58 % 1016,6 hPa 0,0 l/m 5,8 km/h (2 Bft) SO 131 0 min 0,000 mm 0,0 UV-I 0 W/m 10,7 C 19,2 C 7,9 km/h (2 Bft) 0,00 %
12.09.2015 19:33 19,0 C 60 % 1016,4 hPa 0,0 l/m 1,4 km/h (1 Bft) O-SO 110 0 min 0,000 mm 0,0 UV-I 0 W/m 11,1 C 19,0 C 4,0 km/h (1 Bft) 0,00 %
12.09.2015 19:38 18,8 C 60 % 1016,5 hPa 0,0 l/m 2,9 km/h (1 Bft) O-SO 104 0 min 0,000 mm 0,0 UV-I 0 W/m 10,9 C 18,8 C 4,0 km/h (1 Bft) 0,00 %
12.09.2015 19:43 18,5 C 61 % 1016,4 hPa 0,0 l/m 2,9 km/h (1 Bft) SO 131 0 min 0,000 mm 0,0 UV-I 0 W/m 10,8 C 18,5 C 4,0 km/h (1 Bft) 0,00 %
12.09.2015 19:48 18,2 C 61 % 1016,7 hPa 0,0 l/m 0,7 km/h (0 Bft) O-NO 60 0 min 0,000 mm 0,0 UV-I 0 W/m 10,6 C 18,2 C 4,0 km/h (1 Bft) 0,00 %
12.09.2015 19:53 18,0 C 64 % 1016,6 hPa 0,0 l/m 3,2 km/h (1 Bft) O-NO 75 0 min 0,000 mm 0,0 UV-I 0 W/m 11,1 C 18,0 C 4,0 km/h (1 Bft) 0,00 %
12.09.2015 19:58 17,8 C 64 % 1016,3 hPa 0,0 l/m 0,7 km/h (0 Bft) O-NO 71 0 min 0,000 mm 0,0 UV-I 0 W/m 10,9 C 17,8 C 4,0 km/h (1 Bft) 0,00 %
12.09.2015 20:03 17,7 C 65 % 1016,6 hPa 0,0 l/m 0,4 km/h (0 Bft) O-SO 119 0 min 0,000 mm 0,0 UV-I 0 W/m 11,0 C 17,7 C 4,0 km/h (1 Bft) 0,00 %
12.09.2015 20:08 17,6 C 66 % 1016,7 hPa 0,0 l/m 0,4 km/h (0 Bft) O-NO 70 0 min 0,000 mm 0,0 UV-I 0 W/m 11,2 C 17,6 C 4,0 km/h (1 Bft) 0,00 %
12.09.2015 20:13 17,5 C 67 % 1016,7 hPa 0,0 l/m 5,8 km/h (2 Bft) O-SO 114 0 min 0,000 mm 0,0 UV-I 0 W/m 11,3 C 17,5 C 7,9 km/h (2 Bft) 0,00 %
12.09.2015 20:18 17,3 C 68 % 1016,4 hPa 0,0 l/m 4,0 km/h (1 Bft) NO 56 0 min 0,000 mm 0,0 UV-I 0 W/m 11,3 C 17,3 C 7,9 km/h (2 Bft) 0,00 %
12.09.2015 20:23 17,1 C 70 % 1016,4 hPa 0,0 l/m 3,2 km/h (1 Bft) O-SO 110 0 min 0,000 mm 0,0 UV-I 0 W/m 11,6 C 17,1 C 4,0 km/h (1 Bft) 0,00 %
12.09.2015 20:28 17,1 C 72 % 1016,7 hPa 0,0 l/m 4,0 km/h (1 Bft) S-SO 152 0 min 0,000 mm 0,0 UV-I 0 W/m 12,0 C 17,1 C 7,9 km/h (2 Bft) 0,00 %
12.09.2015 20:33 17,2 C 73 % 1016,7 hPa 0,0 l/m 4,0 km/h (1 Bft) O-SO 115 0 min 0,000 mm 0,0 UV-I 0 W/m 12,3 C 17,2 C 7,9 km/h (2 Bft) 0,00 %
12.09.2015 20:38 17,2 C 73 % 1016,7 hPa 0,0 l/m 2,2 km/h (1 Bft) O 83 0 min 0,000 mm 0,0 UV-I 0 W/m 12,3 C 17,2 C 4,0 km/h (1 Bft) 0,00 %
12.09.2015 20:43 17,2 C 73 % 1016,7 hPa 0,0 l/m 5,8 km/h (2 Bft) NO 47 0 min 0,000 mm 0,0 UV-I 0 W/m 12,3 C 17,2 C 7,9 km/h (2 Bft) 0,00 %
12.09.2015 20:48 17,2 C 74 % 1016,8 hPa 0,0 l/m 4,0 km/h (1 Bft) O-NO 77 0 min 0,000 mm 0,0 UV-I 0 W/m 12,5 C 17,2 C 4,0 km/h (1 Bft) 0,00 %
12.09.2015 20:53 17,2 C 74 % 1017,0 hPa 0,0 l/m 3,2 km/h (1 Bft) O 84 0 min 0,000 mm 0,0 UV-I 0 W/m 12,5 C 17,2 C 7,9 km/h (2 Bft) 0,00 %
12.09.2015 20:58 17,1 C 75 % 1016,8 hPa 0,0 l/m 1,8 km/h (1 Bft) O 94 0 min 0,000 mm 0,0 UV-I 0 W/m 12,6 C 17,1 C 4,0 km/h (1 Bft) 0,00 %
12.09.2015 21:03 17,0 C 75 % 1016,7 hPa 0,0 l/m 6,8 km/h (2 Bft) O-NO 68 0 min 0,000 mm 0,0 UV-I 0 W/m 12,5 C 16,8 C 11,9 km/h (2 Bft) 0,00 %
12.09.2015 21:08 17,0 C 75 % 1016,9 hPa 0,0 l/m 6,8 km/h (2 Bft) O 82 0 min 0,000 mm 0,0 UV-I 0 W/m 12,5 C 16,8 C 11,9 km/h (2 Bft) 0,00 %
12.09.2015 21:13 16,9 C 76 % 1016,8 hPa 0,0 l/m 0,0 km/h (0 Bft) O 88 0 min 0,000 mm 0,0 UV-I 0 W/m 12,6 C 16,9 C 0,0 km/h (0 Bft) 0,00 %
12.09.2015 21:18 16,9 C 76 % 1016,8 hPa 0,0 l/m 0,7 km/h (0 Bft) O-NO 60 0 min 0,000 mm 0,0 UV-I 0 W/m 12,6 C 16,9 C 4,0 km/h (1 Bft) 0,00 %
12.09.2015 21:23 16,8 C 76 % 1016,8 hPa 0,0 l/m 6,8 km/h (2 Bft) O-NO 67 0 min 0,000 mm 0,0 UV-I 0 W/m 12,5 C 16,6 C 11,9 km/h (2 Bft) 0,00 %
12.09.2015 21:28 16,7 C 76 % 1016,7 hPa 0,0 l/m 1,8 km/h (1 Bft) O-NO 71 0 min 0,000 mm 0,0 UV-I 0 W/m 12,4 C 16,7 C 7,9 km/h (2 Bft) 0,00 %
12.09.2015 21:33 16,7 C 76 % 1016,8 hPa 0,0 l/m 4,7 km/h (1 Bft) O-NO 78 0 min 0,000 mm 0,0 UV-I 0 W/m 12,4 C 16,7 C 7,9 km/h (2 Bft) 0,00 %
12.09.2015 21:38 16,7 C 76 % 1016,7 hPa 0,0 l/m 2,2 km/h (1 Bft) O-NO 78 0 min 0,000 mm 0,0 UV-I 0 W/m 12,4 C 16,7 C 7,9 km/h (2 Bft) 0,00 %
12.09.2015 21:43 16,6 C 76 % 1016,7 hPa 0,0 l/m 2,9 km/h (1 Bft) O 92 0 min 0,000 mm 0,0 UV-I 0 W/m 12,3 C 16,6 C 4,0 km/h (1 Bft) 0,00 %
12.09.2015 21:48 16,5 C 76 % 1016,5 hPa 0,0 l/m 0,7 km/h (0 Bft) O 85 0 min 0,000 mm 0,0 UV-I 0 W/m 12,3 C 16,5 C 4,0 km/h (1 Bft) 0,00 %
12.09.2015 21:53 16,5 C 76 % 1016,6 hPa 0,0 l/m 4,3 km/h (1 Bft) O-SO 119 0 min 0,000 mm 0,0 UV-I 0 W/m 12,3 C 16,5 C 7,9 km/h (2 Bft) 0,00 %
12.09.2015 21:58 16,5 C 76 % 1016,5 hPa 0,0 l/m 2,9 km/h (1 Bft) O-NO 58 0 min 0,000 mm 0,0 UV-I 0 W/m 12,3 C 16,5 C 4,0 km/h (1 Bft) 0,00 %
12.09.2015 22:03 16,5 C 75 % 1016,5 hPa 0,0 l/m 0,0 km/h (0 Bft) O-NO 74 0 min 0,000 mm 0,0 UV-I 0 W/m 12,1 C 16,5 C 0,0 km/h (0 Bft) 0,00 %
12.09.2015 22:08 16,6 C 74 % 1016,4 hPa 0,0 l/m 8,3 km/h (2 Bft) O-SO 110 0 min 0,000 mm 0,0 UV-I 0 W/m 11,9 C 15,6 C 11,9 km/h (2 Bft) 0,00 %
12.09.2015 22:13 16,7 C 73 % 1016,2 hPa 0,0 l/m 9,0 km/h (2 Bft) O-SO 121 0 min 0,000 mm 0,0 UV-I 0 W/m 11,8 C 15,4 C 11,9 km/h (2 Bft) 0,00 %
12.09.2015 22:18 16,7 C 74 % 1016,4 hPa 0,0 l/m 6,8 km/h (2 Bft) S-SW 192 0 min 0,000 mm 0,0 UV-I 0 W/m 12,0 C 16,5 C 11,9 km/h (2 Bft) 0,00 %
12.09.2015 22:23 16,7 C 74 % 1016,0 hPa 0,0 l/m 8,3 km/h (2 Bft) S 171 0 min 0,000 mm 0,0 UV-I 0 W/m 12,0 C 15,7 C 11,9 km/h (2 Bft) 0,00 %
12.09.2015 22:28 16,7 C 74 % 1016,0 hPa 0,0 l/m 0,7 km/h (0 Bft) N-NW 327 0 min 0,000 mm 0,0 UV-I 0 W/m 12,0 C 16,7 C 4,0 km/h (1 Bft) 0,00 %
12.09.2015 22:33 16,6 C 75 % 1016,0 hPa 0,0 l/m 6,8 km/h (2 Bft) SO 142 0 min 0,000 mm 0,0 UV-I 0 W/m 12,1 C 16,4 C 7,9 km/h (2 Bft) 0,00 %
12.09.2015 22:38 16,5 C 75 % 1016,3 hPa 0,0 l/m 5,8 km/h (2 Bft) O 85 0 min 0,000 mm 0,0 UV-I 0 W/m 12,1 C 16,5 C 7,9 km/h (2 Bft) 0,00 %
12.09.2015 22:43 16,4 C 76 % 1016,2 hPa 0,0 l/m 3,2 km/h (1 Bft) SO 136 0 min 0,000 mm 0,0 UV-I 0 W/m 12,2 C 16,4 C 4,0 km/h (1 Bft) 0,00 %
12.09.2015 22:48 16,3 C 76 % 1016,3 hPa 0,0 l/m 2,9 km/h (1 Bft) O 92 0 min 0,000 mm 0,0 UV-I 0 W/m 12,1 C 16,3 C 4,0 km/h (1 Bft) 0,00 %
12.09.2015 22:53 16,1 C 77 % 1016,2 hPa 0,0 l/m 1,8 km/h (1 Bft) O-SO 110 0 min 0,000 mm 0,0 UV-I 0 W/m 12,1 C 16,1 C 4,0 km/h (1 Bft) 0,00 %
12.09.2015 22:58 16,0 C 78 % 1016,3 hPa 0,0 l/m 0,7 km/h (0 Bft) O-SO 110 0 min 0,000 mm 0,0 UV-I 0 W/m 12,2 C 16,0 C 4,0 km/h (1 Bft) 0,00 %
12.09.2015 23:03 15,8 C 79 % 1016,3 hPa 0,0 l/m 0,4 km/h (0 Bft) O-SO 103 0 min 0,000 mm 0,0 UV-I 0 W/m 12,2 C 15,8 C 4,0 km/h (1 Bft) 0,00 %
12.09.2015 23:08 15,7 C 79 % 1016,4 hPa 0,0 l/m 0,0 km/h (0 Bft) O-NO 57 0 min 0,000 mm 0,0 UV-I 0 W/m 12,1 C 15,7 C 0,0 km/h (0 Bft) 0,00 %
12.09.2015 23:13 15,5 C 79 % 1016,2 hPa 0,0 l/m 0,7 km/h (0 Bft) O-SO 104 0 min 0,000 mm 0,0 UV-I 0 W/m 11,9 C 15,5 C 4,0 km/h (1 Bft) 0,00 %
12.09.2015 23:18 15,2 C 80 % 1016,3 hPa 0,0 l/m 0,0 km/h (0 Bft) O 79 0 min 0,000 mm 0,0 UV-I 0 W/m 11,8 C 15,2 C 0,0 km/h (0 Bft) 0,00 %
12.09.2015 23:23 15,0 C 82 % 1016,2 hPa 0,0 l/m 0,0 km/h (0 Bft) O 88 0 min 0,000 mm 0,0 UV-I 0 W/m 12,0 C 15,0 C 0,0 km/h (0 Bft) 0,00 %
12.09.2015 23:28 14,8 C 82 % 1016,2 hPa 0,0 l/m 0,0 km/h (0 Bft) O-NO 74 0 min 0,000 mm 0,0 UV-I 0 W/m 11,8 C 14,8 C 0,0 km/h (0 Bft) 0,00 %
12.09.2015 23:33 14,6 C 83 % 1016,2 hPa 0,0 l/m 0,0 km/h (0 Bft) NO 49 0 min 0,000 mm 0,0 UV-I 0 W/m 11,7 C 14,6 C 0,0 km/h (0 Bft) 0,00 %
12.09.2015 23:38 14,4 C 83 % 1016,1 hPa 0,0 l/m 0,0 km/h (0 Bft) O-NO 64 0 min 0,000 mm 0,0 UV-I 0 W/m 11,5 C 14,4 C 0,0 km/h (0 Bft) 0,00 %
12.09.2015 23:43 14,3 C 84 % 1016,2 hPa 0,0 l/m 0,0 km/h (0 Bft) O-NO 64 0 min 0,000 mm 0,0 UV-I 0 W/m 11,6 C 14,3 C 0,0 km/h (0 Bft) 0,00 %
12.09.2015 23:48 14,2 C 84 % 1016,3 hPa 0,0 l/m 0,0 km/h (0 Bft) O 84 0 min 0,000 mm 0,0 UV-I 0 W/m 11,5 C 14,2 C 0,0 km/h (0 Bft) 0,00 %
12.09.2015 23:53 14,2 C 84 % 1016,4 hPa 0,0 l/m 0,4 km/h (0 Bft) O-SO 106 0 min 0,000 mm 0,0 UV-I 0 W/m 11,5 C 14,2 C 4,0 km/h (1 Bft) 0,00 %
12.09.2015 23:58 14,1 C 85 % 1016,1 hPa 0,0 l/m 1,4 km/h (1 Bft) NO 51 0 min 0,000 mm 0,0 UV-I 0 W/m 11,6 C 14,1 C 4,0 km/h (1 Bft) 0,00 %
_ Min-Zeit 05:47 16:58 22:23 - 00:02 - - - - - - 05:47 05:47 00:02 00:02
Minimum _ 7,4 C 41 % 1016,0 hPa - 0,0 km/h (0 Bft) - - - - - - 7,3 C 7,4 C 0,0 km/h (0 Bft) 0,00 %
_ Max-Zeit 17:28 02:27 10:32 00:02 18:03 - - 12:43 00:02 12:12 14:28 21:13 17:28 18:03 00:02
Maximum _ 23,4 C 99 % 1020,9 hPa 0,0 l/m 12,2 km/h
O-SO (2 Bft)
- - 6 min 0,000 mm 3,0 UV-I 756 W/m 12,6 C 23,4 C 15,8 km/h
O-SO (3 Bft)
0,00 %
Durchschnitt _ 14,9 C 77 % 1018,6 hPa #0,0 l/m 1,4 km/h (1 Bft) O - #8:01 h #0,000 mm 1,6 UV-I 418 W/m 10,1 C 14,9 C 2,7 km/h (1 Bft) 0,00 %